Location: Clanezzo
(45.7500°N, 9.6000°E)
Time: 08:52:42
(UTC+00:00)

Gbstr 26 Del rocket - Pass Details

Date: 27 September 2021
Orbit: 492 x 1263 km, 51.8° (Epoch: 18 October)

Event Time Altitude Azimuth Distance (km) Brightness Sun altitude
Rises 19:19:20 0° 226° (SW) 3,816 7.4 -23.0°
Reaches altitude 10° 19:21:53 10° 224° (SW) 2,956 6.7 -23.4°
Maximum altitude 19:29:11 68° 143° (SE) 1,295 4.3 -24.6°
Enters shadow 19:32:36 37° 73° (ENE) 1,836 5.0 -25.1°
